Weather in Nikolsk

Russia / Republic of Buryatia     51°11′31″N   108°19′27″E
temp.,
°C
wind,
m/s
gust,
m/s
humid.,
%
clouds,
%
prec.,
mm/h
press.,
hPa
HPBL,
m
12 april, mon
mon1223:00−7wnw36460 0.0 1035243
02:00−7wnw37513 0.0 1036334
05:00−8w35540 0.0 1036158
08:00−6wnw47525 0.0 1035852
11:00−1w563272 0.0 10321549
14:00+1w572698 0.0 10281888
17:00+3wnw6824100 0.0 10252308
20:00−3nnw224710 0.0 102729
13 april, tue
tue1323:00−5nw115916 0.0 102710
02:00−5w22725 0.0 102714
05:00−6w228117 0.0 102623
08:00−3wsw23695 0.0 1025289
11:00+2wsw45445 0.0 10211271
14:00+6wsw683392 0.0 10161908
17:00+6w6837100 0.0 10141811
20:00+3w3768100 0.0 1015215
14 april, wed
wed1423:00+2wnw3871100 0.0 1015484
02:000nw5977100 0.0 1016839
05:00−1nw4975100 0.0 1016728
08:00−1nnw3666100 0.0 1016789
11:000nnw6853100 0.1 10151504
14:00+2nnw7838100 0.2 10142047
17:00+2nw81031100 0.0 10142442
20:00−1nw5105420 0.0 1016483
15 april, thu
thu1523:00−4wnw38675 0.0 1018225
02:00−5wnw511725 0.0 1017457
05:00−6w487819 0.0 1017311
08:00−4w51081100 0.3 1015678
11:000wnw6953100 0.8 10131643
14:00+1nw7947100 1.3 10121730
17:00+1nnw71040100 0.5 10122145
20:00−3nnw475321 0.6 1016152
16 april, fri
fri1623:00−5wnw38725 0.0 1019225
02:00−5nw512670 0.0 1021505
05:00−6wnw37785 0.0 1023227
08:00−4w47635 0.0 1023534
11:00+1w56315 0.0 10211786
14:00+4wsw67269 0.0 10192110
17:00+6w682496 0.0 10171954
20:00+1w225279 0.0 101922